Overview Statistics Trail Chart Weather Telemetry Raw packets
 

This is the latest recevied weather packets stored in our database for station/object IU3OVK-13. If no packets are shown the sender has not sent any weather packets the latest 10 day(s).

<< 2 3 4 5 6 7 8 >>
Time Temp. Humidity Pressure Rain* Wind** Luminosity Snow
1788555950 23.33° C 99% 1010.4 hPa - - - -
1788555330 23.89° C 99% 1010.1 hPa - - - -
1788554710 23.89° C 99% 1010 hPa - - - -
1788554090 23.89° C 99% 1010.1 hPa - - - -
1788553469 23.89° C 99% 1010 hPa - - - -
1788552229 24.44° C 99% 1010.1 hPa - - - -
1788551609 25.56° C 99% 1011.1 hPa - - - -
1788550989 25° C 99% 1011.4 hPa - - - -
1788550368 25.56° C 99% 1010.8 hPa - - - -
1788549128 26.11° C 99% 1011 hPa - - - -
1788547931 26.67° C 99% 1011 hPa - - - -
1788547907 26.67° C 99% 1011 hPa - - - -
1788547267 26.67° C 99% 1011.1 hPa - - - -
1788546647 27.22° C 99% 1010.8 hPa - - - -
1788546027 26.67° C 99% 1010.8 hPa - - - -
1788545407 27.22° C 99% 1010.7 hPa - - - -
1788544787 27.78° C 99% 1010.7 hPa - - - -
1788543546 28.33° C 99% 1010.6 hPa - - - -
1788542941 28.89° C 99% 1010.3 hPa - - - -
1788542306 29.44° C 99% 1010 hPa - - - -
1788541686 28.89° C 99% 1010.1 hPa - - - -
1788540445 30° C 99% 1010.1 hPa - - - -
1788539825 30° C 99% 1010 hPa - - - -
1788539205 30° C 99% 1009.9 hPa - - - -
1788538585 30° C 99% 1009.9 hPa - - - -

* Rain since midnight (hover to see other rain measurements)
** Current wind speed in m/s (hover to see current wind gust speed)